Location: Nied?wied?
(53.3665°N, 14.8184°E)
Time: 22:28:44
(UTC+00:00)

SJ-6B - Pass Details

Date: 03 March 2021
Orbit: 509 x 581 km, 97.6° (Epoch: 12 April)

Event Time Altitude Azimuth Distance (km) Brightness Sun altitude
Exits shadow 19:23:00 15° 204° (SSW) 1,594 5.2 -24.2°
Maximum altitude 19:25:55 33° 264° (W) 968 4.5 -24.6°
Drops below altitude 10° 19:29:38 10° 330° (NNW) 1,874 6.2 -25.1°
Sets 19:31:56 0° 340° (NNW) 2,764 7.1 -25.4°
